User: anonymous
Location: Unspecified
(0.0000°N, 0.0000°E)
Time: 07:41:27
(UTC+00:00)
Language:

USA 229 - Orbit

View from above orbital plane
View from above orbital plane
View from above satellite
View from above satellite

Ground track
Ground track

The orbit data is extracted from the following two-line orbital elements,

1 37386U 11014A   14109.81531536 0.00000000  00000-0  00000-0 0    04
2 37386  63.4405  72.9375 0037844 170.0466 189.9534 13.40645470    07
Epoch (UTC): 19 April 2014 19:34:03
Eccentricity: 0.0037844
inclination: 63.4405°
perigee height: 1078 km
apogee height: 1135 km
right ascension of ascending node: 72.9375°
argument of perigee: 170.0466°
revolutions per day: 13.40645470
mean anomaly at epoch: 189.9534°
orbit number at epoch: 0

The dashed part of the orbit path shows where the satellite is in the earth's shadow,  

DLR